Location: *
(42.0175°N, 9.4056°E)
Time: 10:16:55
(UTC+00:00)

Cosmos 1709 Rocket - Pass Details

Date: 25 August 2019
Orbit: 948 x 1002 km, 82.9° (Epoch: 19 September)

Event Time Altitude Azimuth Distance (km) Brightness Sun altitude
Rises 20:10:52 0° 351° (N) 3,634 7.7 -21.2°
Reaches altitude 10° 20:13:21 10° 351° (N) 2,688 6.9 -21.5°
Maximum altitude 20:19:30 85° 265° (W) 969 3.9 -22.4°
Enters shadow 20:22:32 32° 179° (S) 1,576 4.7 -22.9°
